Shelbyville, IN

5:52 AM EDT on May 23, 2017 (GMT -0400)
Shelbyville Municipal

Weather History for KGEZ - April, 2014

Change the Weather History Date:

Sunday, April 6, 2014

  Actual Average Record
Temperature  
Mean Temperature 47 °F 50 °F  
Max Temperature 59 °F 60 °F 73 °F (2001)
Min Temperature 35 °F 39 °F 26 °F (2002)
Degree Days  
Heating Degree Days 18 16  
Month to date heating degree days 76 99  
Since 1 July heating degree days 5392 4982  
Cooling Degree Days 0 0  
Month to date cooling degree days 0 0  
Year to date cooling degree days 0 1  
Moisture  
Dew Point 33 °F    
Average Humidity 60    
Maximum Humidity 82    
Minimum Humidity 37    
Precipitation  
Precipitation 0.00 in 0.11 in 0.29 in (2016)
Month to date precipitation 2.71 0.69  
Year to date precipitation 8.65 8.87  
Sea Level Pressure  
Sea Level Pressure 30.08 in    
Wind  
Wind Speed 8 mph (East)    
Max Wind Speed 16 mph    
Max Gust Speed 21 mph    
Visibility 10 miles    
Events      
T = Trace of Precipitation, MM = Missing Value Source: NWS Daily Summary

Daily Weather History Graph

Daily Weather History Graph

Search for Another Location

Airport or City:

Trip Planner

Search our weather history database for the weather conditions in past years. The results will help you decide how hot, cold, wet, or windy it might be!

Date:

Astronomy

Apr. 06, 2014 Rise Set
Actual Time 7:19 AM EDT 8:12 PM EDT
Civil Twilight 6:52 AM EDT 8:39 PM EDT
Nautical Twilight 6:19 AM EDT 9:12 PM EDT
Astronomical Twilight 5:46 AM EDT 9:45 PM EDT
Moon 12:20 PM EDT (4/6) 2:07 AM EDT (4/6)
Length of Visible Light 13h 47m
Length of Day
12h 52m
Waxing Crescent, 43% of the Moon is Illuminated
Apr 6
Waxing Crescent
Apr 7
First Quarter
Apr 15
Full
Apr 22
Last Quarter
Apr 29
New

Hourly Weather History & Observations

Time (EDT) Temp. Windchill Dew Point Humidity Pressure Visibility Wind Dir Wind Speed Gust Speed Precip Events Conditions
12:53 AM 39.0 °F 36.8 °F 34.0 °F 82% 30.19 in 10.0 mi NE 3.5 mph - N/A   Clear
1:53 AM 37.0 °F 32.4 °F 32.0 °F 82% 30.18 in 10.0 mi ENE 5.8 mph - N/A   Clear
2:53 AM 37.0 °F 33.3 °F 30.9 °F 79% 30.17 in 10.0 mi ENE 4.6 mph - N/A   Clear
3:53 AM 36.0 °F 30.3 °F 30.9 °F 82% 30.17 in 10.0 mi East 6.9 mph - N/A   Clear
4:53 AM 36.0 °F 31.1 °F 30.0 °F 79% 30.16 in 10.0 mi East 5.8 mph - N/A   Clear
5:53 AM 35.1 °F 29.3 °F 28.9 °F 78% 30.15 in 10.0 mi ENE 6.9 mph - N/A   Clear
6:53 AM 35.1 °F 30.1 °F 28.9 °F 78% 30.17 in 10.0 mi East 5.8 mph - N/A   Clear
7:53 AM 36.0 °F 30.3 °F 28.9 °F 76% 30.18 in 10.0 mi ENE 6.9 mph - N/A   Clear
9:53 AM 46.0 °F 41.4 °F 32.0 °F 58% 30.19 in 10.0 mi ESE 9.2 mph - N/A   Clear
10:53 AM 48.0 °F - 30.9 °F 52% 30.18 in 10.0 mi ESE 10.4 mph - N/A   Clear
11:53 AM 50.0 °F - 33.1 °F 52% 30.14 in 10.0 mi East 9.2 mph - N/A   Clear
12:53 PM 52.0 °F - 33.1 °F 49% 30.12 in 10.0 mi ENE 8.1 mph - N/A   Clear
1:53 PM 54.0 °F - 34.0 °F 47% 30.07 in 10.0 mi ENE 12.7 mph - N/A   Clear
2:53 PM 55.0 °F - 35.1 °F 47% 30.04 in 10.0 mi ENE 9.2 mph - N/A   Clear
3:53 PM 57.0 °F - 33.1 °F 40% 30.02 in 10.0 mi East 11.5 mph 21.9 mph N/A   Clear
4:53 PM 57.9 °F - 34.0 °F 41% 30.00 in 10.0 mi ENE 11.5 mph - N/A   Clear
5:53 PM 59.0 °F - 33.1 °F 38% 29.96 in 10.0 mi East 11.5 mph - N/A   Clear
6:53 PM 57.9 °F - 33.1 °F 39% 29.97 in 10.0 mi East 9.2 mph - N/A   Clear
7:53 PM 54.0 °F - 37.0 °F 53% 29.96 in 10.0 mi East 5.8 mph - N/A   Clear
8:53 PM 51.1 °F - 36.0 °F 56% 29.95 in 10.0 mi East 6.9 mph - N/A   Clear
9:53 PM 48.9 °F - 37.9 °F 66% 29.96 in 10.0 mi ENE 6.9 mph - N/A   Clear
10:53 PM 48.0 °F - 37.0 °F 66% 29.95 in 10.0 mi ENE 6.9 mph - N/A   Clear
11:53 PM 48.0 °F - 36.0 °F 63% 29.94 in 10.0 mi East 8.1 mph - N/A   Clear